DECAYED
Showing default

M3MSAT, 41605 (Decayed)

Orbit data source: Space-Track

M3MSAT, 41605 was a Canadian payload satellite in LEO that was launched on Wed, 22 Jun 2016 UTC via a PSLV-XL launch vehicle from the Sirharikota (SRI). Payload-class satellites include a variety of spacecraft equipped with specific instruments for various scientific and technological missions. These include communications satellites like Starlink; space stations such as the ISS; scientific satellites like the Hubble; Earth observation satellites from companies like Planet Labs, Umbra, and HawkEye 360; GPS; miniature CubeSats for education and research; and military/defense satellites.

Not visible in the next 10 days
Identifier
41605, 2016-040G
Orbit
Decayed
Country
Flag of CACA
Related business
Manufacturer
Honeywell/ComDev
Mission
Decayed Defense Communications
Bus & Motor
MMMS, Unknown motor
Mass
85 kg wet, 85 kg dry
Launch date (UTC)
2016-06-22 (10 years ago)
Launch vehicle
PSLV-XL
Launch site
Sirharikota (SRI)
Object type
Payload
Rocket body
Debris
Shape & HBR
Box, 0.4 m
Radar Cross Section
0.660 m², Medium (>0.1 m² and < 1m²)

Expand to show TLE details & history
Last TLE update: 2 months ago

TLE from 2 months ago
0 M3MSAT
1 41605U 16040G   25353.51682543  .11453613  24279-5  13983-3 0  9999
2 41605  97.0276  23.8359 0008747 238.4233 121.6219 16.49580729529740
Epoch: 2025-12-19T12:24Z
TLE epoch observation values (Epoch: 2025-12-19T12:24:13.717Z)
Latitude
-0.00002°
Longitude
109.4219°
Altitude
146.709 km
Speed
7.816 km/s
True Right ascension
01h 35m 20s
True Declination
0° 00' 00"
Sunlit
Object was in full shadow at epoch
Visualization orbit readout
Latitude
Unknown
Longitude
Unknown
Altitude
Unknown
Speed
Unknown
Apparent Right ascension
Unknown
Apparent Declination
Unknown
Sunlit
N/A
Visualization observer readout
Local Sidereal Time
04:40:34
Azimuth
Unknown
Elevation
Unknown
Doppler factor
Unknown
Orbital elements
Apogee altitude
142.918 km
Perigee altitude
131.52 km
Semi-major axis
6,515.356 km
Eccentricity
0.00087
Inclination
97.0276°
RAAN
23.8359°
Arg. of periapsis
238.4233°
True anomaly
121.7072°
Mean anomaly
121.6219°
Eccentric anomaly
121.66456°
Mean motion
4.12701 °/min
Orbital period
87.23 mins
BSTAR
0.00013983
Loading maneuver chart data...
Computing Atmospheric mass density...

Documentation

Showing up to 5 results
|